Tracking 17884 objects as of 3-December-2016
HD Live streaming from Space Station
objects crossing your sky now

SL-16 DEB

Track SL-16 DEB now!
10-day predictions


NORAD ID: 22336
Int'l Code: 1992-093Z
Perigee: 840.5 km
Apogee: 1,013.6 km
Inclination: 71.1 °
Period: 103.4 minutes
Semi major axis: 7298 km
RCS: 0.2247 m2 (medium)
Launch date: December 25, 1992
Source: Commonwealth of Independent States (former USSR) (CIS)
Launch site: TYURATAM MISSILE AND SPACE COMPLEX (TTMTR)

Note: This is SATELLITE DEBRIS
Your satellite tracking list
Your tracking list is empty





NASA's NSSDC Master Catalog

Two Line Element Set (TLE):
1 22336U 92093Z   16336.61694020 -.00000269 +00000-0 -16524-3 0  9996
2 22336 071.1318 035.0109 0118611 163.6023 349.0009 13.92496344212124
Source of the keplerian elements: AFSPC